Bloomington, IL

12:58 PM CST on December 13, 2017 (GMT -0600)
Central Ill Regional

Weather History for KBMI - October, 2013

Change the Weather History Date:

Sunday, October 27, 2013

  Actual Average Record
Temperature  
Mean Temperature 42 °F -  
Max Temperature 55 °F 60 °F 75 °F (1998)
Min Temperature 30 °F 34 °F 30 °F (1997)
Degree Days  
Heating Degree Days 23    
Moisture  
Dew Point 28 °F    
Average Humidity 62    
Maximum Humidity 89    
Minimum Humidity 36    
Precipitation  
Precipitation 0.00 in - - ()
Sea Level Pressure  
Sea Level Pressure 30.09 in    
Wind  
Wind Speed 7 mph (SW)    
Max Wind Speed 13 mph    
Max Gust Speed -    
Visibility 10 miles    
Events      
Averages and records for this station are not official NWS values.
T = Trace of Precipitation, MM = Missing Value Source: NWS Daily Summary

Daily Weather History Graph

Daily Weather History Graph

Search for Another Location

Airport or City:

Trip Planner

Search our weather history database for the weather conditions in past years. The results will help you decide how hot, cold, wet, or windy it might be!

Date:

Astronomy

Oct. 27, 2013 Rise Set
Actual Time 7:20 AM CDT 5:58 PM CDT
Civil Twilight 6:52 AM CDT 6:26 PM CDT
Nautical Twilight 6:20 AM CDT 6:58 PM CDT
Astronomical Twilight 5:48 AM CDT 7:29 PM CDT
Moon 12:15 AM CDT (10/27) 2:08 PM CDT (10/27)
Length of Visible Light 11h 34m
Length of Day
10h 38m
Last Quarter, 43% of the Moon is Illuminated
Oct 27
Last Quarter
Nov 3
New
Nov 9
First Quarter
Nov 17
Full
Nov 25
Last Quarter

Hourly Weather History & Observations

Time (CDT) Temp. Windchill Dew Point Humidity Pressure Visibility Wind Dir Wind Speed Gust Speed Precip Events Conditions
12:56 AM 37.9 °F 32.1 °F 29.1 °F 71% 30.12 in 10.0 mi West 8.1 mph - N/A   Clear
1:56 AM 36.9 °F 32.2 °F 28.0 °F 70% 30.12 in 10.0 mi WNW 5.8 mph - N/A   Clear
2:56 AM 34.9 °F 32.0 °F 30.0 °F 82% 30.10 in 10.0 mi WSW 3.5 mph - N/A   Clear
3:56 AM 34.0 °F 31.0 °F 28.0 °F 79% 30.09 in 10.0 mi West 3.5 mph - N/A   Clear
4:56 AM 32.9 °F 29.8 °F 27.1 °F 79% 30.11 in 10.0 mi West 3.5 mph - N/A   Clear
5:56 AM 31.1 °F 27.7 °F 27.1 °F 85% 30.12 in 10.0 mi SW 3.5 mph - N/A   Clear
6:56 AM 30.0 °F 24.1 °F 27.1 °F 89% 30.13 in 10.0 mi SSW 5.8 mph - N/A   Clear
7:56 AM 30.0 °F 24.1 °F 27.1 °F 89% 30.14 in 10.0 mi SW 5.8 mph - N/A   Clear
8:56 AM 36.9 °F 34.3 °F 30.0 °F 76% 30.14 in 10.0 mi WSW 3.5 mph - N/A   Clear
9:56 AM 43.9 °F 39.9 °F 31.1 °F 61% 30.14 in 10.0 mi WSW 6.9 mph - N/A   Clear
10:56 AM 47.8 °F - 29.1 °F 48% 30.13 in 10.0 mi WSW 9.2 mph - N/A   Clear
11:56 AM 50.9 °F - 29.1 °F 43% 30.12 in 10.0 mi WSW 11.5 mph - N/A   Clear
12:56 PM 52.9 °F - 28.0 °F 38% 30.09 in 10.0 mi WSW 10.4 mph - N/A   Clear
1:56 PM 54.0 °F - 28.0 °F 37% 30.06 in 10.0 mi West 11.5 mph - N/A   Clear
2:56 PM 54.0 °F - 28.0 °F 37% 30.05 in 10.0 mi SW 10.4 mph - N/A   Clear
3:56 PM 54.9 °F - 28.0 °F 36% 30.05 in 10.0 mi SW 12.7 mph - N/A   Clear
4:56 PM 54.0 °F - 28.0 °F 37% 30.04 in 10.0 mi SW 11.5 mph - 0.00 in   Clear
5:56 PM 50.0 °F - 30.0 °F 46% 30.04 in 10.0 mi SSW 6.9 mph - N/A   Clear
6:56 PM 43.9 °F 40.5 °F 29.1 °F 56% 30.06 in 10.0 mi SSW 5.8 mph - N/A   Clear
7:56 PM 41.9 °F 37.5 °F 29.1 °F 61% 30.07 in 10.0 mi SSW 6.9 mph - N/A   Clear
8:56 PM 37.9 °F 32.1 °F 28.0 °F 68% 30.07 in 10.0 mi SSW 8.1 mph - N/A   Clear
9:56 PM 38.8 °F 33.2 °F 28.0 °F 65% 30.08 in 10.0 mi SSW 8.1 mph - N/A   Clear
10:56 PM 36.9 °F 32.2 °F 28.0 °F 70% 30.09 in 3.0 mi SSW 5.8 mph - N/A   Haze
11:56 PM 36.0 °F 33.3 °F 27.1 °F 70% 30.09 in 10.0 mi SSW 3.5 mph - N/A   Clear